Location: Hoyos del Collado
(40.3594°N, 5.2003°W)
Time: 03:30:16
(UTC+00:00)

USA 281 - Pass Details

Date: 18 April 2024
Orbit: 1074 x 1085 km, 106.0° (Epoch: 22 May)

Event Time Altitude Azimuth Distance (km) Brightness Sun altitude
Exits shadow 21:44:15 27° 205° (SSW) 1,944 4.3 -27.1°
Maximum altitude 21:47:10 40° 254° (WSW) 1,543 4.1 -27.5°
Drops below altitude 10° 21:53:17 10° 322° (NW) 2,929 6.5 -28.2°
Sets 21:56:00 0° 330° (NNW) 3,891 7.3 -28.6°
